Greenville, AL

3:27 PM CST on February 14, 2016 (GMT -0600)
Greenville Municipal

Weather History for KPRN - June, 2013

Change the Weather History Date:

Wednesday, June 26, 2013

  Actual Average (KTOI) Record (KTOI)
Temperature  
Mean Temperature 82 °F 80 °F  
Max Temperature 91 °F 91 °F - ()
Min Temperature 72 °F 69 °F - ()
Cooling Degree Days 16 15  
Month to date cooling degree days 328  
Year to date cooling degree days 615  
Since 1 June cooling degree days 328  
Growing Degree Days 32 (Base 50)    
Moisture  
Dew Point 72 °F    
Average Humidity 73    
Maximum Humidity 93    
Minimum Humidity 50    
Precipitation  
Precipitation 0.01 in 0.15 in - ()
Month to date precipitation 4.21  
Year to date precipitation 27.04  
Sea Level Pressure  
Sea Level Pressure 30.02 in    
Wind  
Wind Speed 4 mph (SW)    
Max Wind Speed 8 mph    
Max Gust Speed -    
Visibility 10 miles    
Events Hail    
T = Trace of Precipitation, MM = Missing Value Source: NWS Daily Summary

Daily Weather History Graph

Daily Weather History Graph

Search for Another Location

Airport or City:

Trip Planner

Search our weather history database for the weather conditions in past years. The results will help you decide how hot, cold, wet, or windy it might be!

Date:

Astronomy

Jun. 26, 2013 Rise Set
Actual Time 5:42 AM CDT 7:56 PM CDT
Civil Twilight 5:14 AM CDT 8:24 PM CDT
Nautical Twilight 4:40 AM CDT 8:58 PM CDT
Astronomical Twilight 4:02 AM CDT 9:35 PM CDT
Moon 10:35 PM CDT (6/26) 9:19 AM CDT (6/26)
Length of Visible Light 15h 09m
Length of Day
14h 13m
Waning Gibbous, 85% of the Moon is Illuminated
Jun 26
Waning Gibbous
Jun 29
Last Quarter
Jul 8
New
Jul 15
First Quarter
Jul 22
Full

Hourly Weather History & Observations

Time (CDT) Temp. Heat Index Dew Point Humidity Pressure Visibility Wind Dir Wind Speed Gust Speed Precip Events Conditions
12:56 AM 75.0 °F - 72.0 °F 90% 30.03 in 10.0 mi SSE 3.5 mph - N/A   Clear
1:56 AM 75.0 °F - 72.0 °F 90% 30.02 in 10.0 mi South 3.5 mph - N/A   Clear
2:56 AM 75.0 °F - 72.0 °F 90% 30.01 in 10.0 mi SSW 3.5 mph - N/A   Clear
3:45 AM - - - N/A% - - North - - N/A Hail Hail
3:56 AM 73.9 °F - 72.0 °F 93% 30.01 in 9.0 mi Calm Calm - N/A   Clear
4:56 AM 73.0 °F - 70.0 °F 90% 30.02 in 10.0 mi Calm Calm - N/A   Clear
5:56 AM 72.0 °F - 70.0 °F 93% 30.05 in 10.0 mi Calm Calm - N/A   Clear
6:56 AM 75.0 °F - 72.0 °F 90% 30.07 in 10.0 mi Calm Calm - 0.01 in   Clear
7:56 AM 79.0 °F - 73.0 °F 82% 30.09 in 10.0 mi WSW 4.6 mph - N/A   Clear
8:56 AM 81.0 °F 86.2 °F 73.9 °F 79% 30.09 in 10.0 mi West 6.9 mph - N/A   Mostly Cloudy
9:56 AM 84.0 °F 89.6 °F 72.0 °F 67% 30.07 in 10.0 mi Calm Calm - N/A   Scattered Clouds
10:56 AM 86.0 °F 92.2 °F 72.0 °F 63% 30.07 in 10.0 mi West 4.6 mph - N/A   Scattered Clouds
11:56 AM 88.0 °F 92.9 °F 70.0 °F 55% 30.06 in 10.0 mi Variable 3.5 mph - N/A   Partly Cloudy
12:56 PM 88.0 °F 93.8 °F 71.1 °F 57% 30.04 in 10.0 mi SW 4.6 mph - N/A   Scattered Clouds
1:56 PM 90.0 °F 95.4 °F 70.0 °F 52% 30.02 in 10.0 mi SSW 8.1 mph - N/A   Clear
2:56 PM 90.0 °F 94.5 °F 69.1 °F 50% 30.00 in 10.0 mi Variable 5.8 mph - N/A   Clear
3:56 PM 91.9 °F 99.5 °F 72.0 °F 52% 29.99 in 10.0 mi Variable 4.6 mph - N/A   Clear
4:56 PM 89.1 °F 95.0 °F 71.1 °F 55% 29.97 in 10.0 mi WSW 4.6 mph - N/A   Scattered Clouds
5:56 PM 89.1 °F 96.0 °F 72.0 °F 57% 29.96 in 10.0 mi SSW 6.9 mph - N/A   Clear
6:56 PM 87.1 °F 94.5 °F 73.0 °F 63% 29.97 in 10.0 mi WSW 4.6 mph - N/A   Scattered Clouds
7:56 PM 84.0 °F 89.6 °F 72.0 °F 67% 29.96 in 10.0 mi SW 4.6 mph - N/A   Mostly Cloudy
8:56 PM 81.0 °F 86.2 °F 73.9 °F 79% 29.98 in 10.0 mi SSW 4.6 mph - N/A   Mostly Cloudy
9:56 PM 81.0 °F 86.2 °F 73.9 °F 79% 29.99 in 10.0 mi SW 5.8 mph - N/A   Partly Cloudy
10:56 PM 79.0 °F - 73.0 °F 82% 30.00 in 10.0 mi SSW 5.8 mph - N/A   Clear
11:56 PM 78.1 °F - 73.0 °F 84% 29.99 in 10.0 mi SW 6.9 mph - N/A   Clear